Weather History for KBIE - July, 2013

Change the Weather History Date:

Thursday, July 18, 2013

  Actual Average Record
Temperature  
Mean Temperature 84 °F -  
Max Temperature 95 °F 92 °F 110 °F (1954)
Min Temperature 72 °F 68 °F 54 °F (2014)
Cooling Degree Days 18    
Growing Degree Days 34 (Base 50)    
Moisture  
Dew Point 66 °F    
Average Humidity 57    
Maximum Humidity 87    
Minimum Humidity 34    
Precipitation  
Precipitation 0.00 in - - ()
Sea Level Pressure  
Sea Level Pressure 30.10 in    
Wind  
Wind Speed 9 mph (SSW)    
Max Wind Speed 22 mph    
Max Gust Speed 28 mph    
Visibility 10 miles    
Events      
Averages and records for this station are not official NWS values.
T = Trace of Precipitation, MM = Missing Value Source: NWS Daily Summary

Daily Weather History Graph

Daily Weather History Graph

Search for Another Location

Airport or City:

Trip Planner

Search our weather history database for the weather conditions in past years. The results will help you decide how hot, cold, wet, or windy it might be!

Date:

Astronomy

Jul. 18, 2013 Rise Set
Actual Time 6:12 AM CDT 8:53 PM CDT
Civil Twilight 5:40 AM CDT 9:25 PM CDT
Nautical Twilight 5:00 AM CDT 10:04 PM CDT
Astronomical Twilight 4:15 AM CDT 10:49 PM CDT
Moon 4:51 PM CDT (7/18) 2:03 AM CDT (7/18)
Length of Visible Light 15h 44m
Length of Day
14h 41m
Waxing Gibbous, 77% of the Moon is Illuminated
Jul 18
Waxing Gibbous
Jul 22
Full
Jul 29
Last Quarter
Aug 6
New
Aug 14
First Quarter

Hourly Weather History & Observations

Time (CDT) Temp. Heat Index Dew Point Humidity Pressure Visibility Wind Dir Wind Speed Gust Speed Precip Events Conditions
12:15 AM 79.3 °F - 66.7 °F 65% 30.20 in 10.0 mi SSE 4.6 mph - N/A   Clear
12:35 AM 79.0 °F - 67.5 °F 68% 30.20 in 10.0 mi SSE 6.9 mph - N/A   Clear
12:55 AM 78.4 °F - 68.0 °F 70% 30.19 in 10.0 mi South 6.9 mph - N/A   Clear
1:15 AM 77.9 °F - 68.0 °F 71% 30.20 in 10.0 mi South 4.6 mph - N/A   Clear
1:35 AM 76.5 °F - 68.5 °F 76% 30.20 in 10.0 mi South 4.6 mph - N/A   Clear
1:55 AM 76.1 °F - 69.1 °F 79% 30.19 in 10.0 mi South 5.8 mph - N/A   Clear
2:15 AM 75.4 °F - 69.3 °F 81% 30.19 in 10.0 mi South 5.8 mph - N/A   Clear
2:35 AM 76.5 °F - 69.3 °F 78% 30.19 in 10.0 mi South 5.8 mph - N/A   Clear
2:55 AM 76.1 °F - 68.9 °F 78% 30.19 in 10.0 mi South 3.5 mph - N/A   Clear
3:15 AM 75.2 °F - 68.5 °F 80% 30.19 in 10.0 mi South 4.6 mph - N/A   Clear
3:35 AM 75.4 °F - 68.9 °F 80% 30.19 in 10.0 mi SSE 4.6 mph - N/A   Clear
3:55 AM 74.8 °F - 68.7 °F 81% 30.19 in 10.0 mi South 4.6 mph - N/A   Clear
4:15 AM 74.3 °F - 68.7 °F 83% 30.19 in 10.0 mi South 4.6 mph - N/A   Clear
4:35 AM 73.8 °F - 68.5 °F 84% 30.18 in 10.0 mi SSE 4.6 mph - N/A   Clear
4:55 AM 74.1 °F - 68.7 °F 83% 30.18 in 10.0 mi South 4.6 mph - N/A   Clear
5:15 AM 73.9 °F - 68.4 °F 83% 30.18 in 10.0 mi SSE 3.5 mph - N/A   Clear
5:35 AM 73.6 °F - 68.4 °F 84% 30.17 in 10.0 mi South 5.8 mph - N/A   Clear
5:55 AM 72.7 °F - 68.4 °F 86% 30.17 in 10.0 mi South 5.8 mph - N/A   Clear
6:15 AM 72.7 °F - 68.4 °F 86% 30.17 in 10.0 mi South 4.6 mph - N/A   Clear
6:35 AM 72.7 °F - 68.5 °F 87% 30.17 in 10.0 mi South 6.9 mph - N/A   Clear
6:55 AM 72.7 °F - 68.5 °F 87% 30.17 in 10.0 mi South 5.8 mph - N/A   Clear
7:15 AM 73.6 °F - 68.9 °F 85% 30.17 in 10.0 mi South 6.9 mph - N/A   Clear
7:35 AM 75.0 °F - 69.4 °F 83% 30.17 in 10.0 mi SSW 8.1 mph - N/A   Clear
7:55 AM 76.6 °F - 70.0 °F 80% 30.17 in 10.0 mi South 6.9 mph - N/A   Clear
8:15 AM 78.3 °F - 70.7 °F 77% 30.16 in 10.0 mi South 8.1 mph - N/A   Clear
8:35 AM 80.2 °F 83.7 °F 70.9 °F 73% 30.16 in 10.0 mi SSW 10.4 mph - N/A   Clear
8:55 AM 81.1 °F 85.0 °F 70.9 °F 71% 30.16 in 10.0 mi SSW 10.4 mph - N/A   Clear
9:15 AM 82.4 °F 86.7 °F 71.1 °F 68% 30.16 in 10.0 mi SW 11.5 mph - N/A   Clear
9:35 AM 83.7 °F 86.7 °F 67.8 °F 59% 30.15 in 10.0 mi SW 12.7 mph - N/A   Clear
9:55 AM 84.6 °F 87.4 °F 67.3 °F 56% 30.15 in 10.0 mi SW 15.0 mph - N/A   Clear
10:15 AM 85.6 °F 88.5 °F 67.1 °F 54% 30.15 in 10.0 mi SW 13.8 mph - N/A   Clear
10:35 AM 86.9 °F 89.6 °F 66.6 °F 51% 30.15 in 10.0 mi SW 15.0 mph 20.7 mph N/A   Clear
10:55 AM 87.6 °F 90.4 °F 66.7 °F 50% 30.14 in 10.0 mi SW 16.1 mph - N/A   Clear
11:15 AM 88.2 °F 90.6 °F 66.4 °F 48% 30.13 in 10.0 mi SSW 13.8 mph 20.7 mph N/A   Clear
11:35 AM 89.2 °F 91.3 °F 65.5 °F 45% 30.13 in 10.0 mi SSW 17.3 mph 25.3 mph N/A   Clear
11:55 AM 89.4 °F 91.9 °F 66.4 °F 46% 30.12 in 10.0 mi SW 18.4 mph 23.0 mph N/A   Clear
12:15 PM 90.3 °F 92.6 °F 65.5 °F 44% 30.12 in 10.0 mi SSW 19.6 mph - N/A   Scattered Clouds
12:35 PM 90.3 °F 92.2 °F 65.1 °F 43% 30.11 in 10.0 mi SW 17.3 mph 25.3 mph N/A   Scattered Clouds
12:55 PM 91.0 °F 93.0 °F 64.8 °F 42% 30.10 in 10.0 mi SW 17.3 mph - N/A   Scattered Clouds
1:15 PM 92.1 °F 93.2 °F 63.5 °F 38% 30.10 in 10.0 mi SSW 13.8 mph 27.6 mph N/A   Scattered Clouds
1:35 PM 92.8 °F 93.9 °F 63.3 °F 37% 30.09 in 10.0 mi SSW 18.4 mph 24.2 mph N/A   Scattered Clouds
1:55 PM 93.4 °F 94.7 °F 63.3 °F 37% 30.08 in 10.0 mi SSW 15.0 mph 27.6 mph N/A   Scattered Clouds
2:15 PM 93.2 °F 94.5 °F 63.1 °F 37% 30.07 in 10.0 mi SSW 21.9 mph 27.6 mph N/A   Scattered Clouds
2:35 PM 92.7 °F 93.6 °F 62.6 °F 37% 30.07 in 10.0 mi SSW 18.4 mph 26.5 mph N/A   Scattered Clouds
2:55 PM 94.1 °F 95.5 °F 63.1 °F 36% 30.06 in 10.0 mi SSW 18.4 mph 27.6 mph N/A   Scattered Clouds
3:15 PM 94.6 °F 95.9 °F 63.1 °F 35% 30.05 in 10.0 mi SW 19.6 mph 23.0 mph N/A   Scattered Clouds
3:35 PM 95.2 °F 96.3 °F 62.8 °F 34% 30.04 in 10.0 mi SSW 18.4 mph 26.5 mph N/A   Scattered Clouds
3:55 PM 94.6 °F 95.9 °F 63.1 °F 35% 30.04 in 10.0 mi SSW 19.6 mph 25.3 mph N/A   Clear
4:15 PM 93.7 °F 94.9 °F 63.1 °F 36% 30.03 in 10.0 mi SW 17.3 mph - N/A   Clear
5:15 PM 94.3 °F 94.9 °F 62.2 °F 34% 30.01 in 10.0 mi SSW 17.3 mph 23.0 mph N/A   Scattered Clouds
5:35 PM 95.0 °F 96.0 °F 62.4 °F 34% 30.00 in 10.0 mi SW 16.1 mph 23.0 mph N/A   Clear
5:55 PM 94.6 °F 95.5 °F 62.2 °F 34% 30.00 in 10.0 mi SW 15.0 mph 23.0 mph N/A   Clear
6:15 PM 94.8 °F 95.8 °F 62.6 °F 34% 29.99 in 10.0 mi SSW 16.1 mph 21.9 mph N/A   Clear
6:35 PM 94.1 °F 95.0 °F 62.6 °F 35% 29.98 in 10.0 mi SSW 15.0 mph - N/A   Clear
6:55 PM 93.4 °F 93.9 °F 62.2 °F 35% 29.98 in 10.0 mi SSW 15.0 mph - N/A   Clear
7:15 PM 92.8 °F 93.5 °F 62.4 °F 36% 29.97 in 10.0 mi SW 11.5 mph - N/A   Clear
7:35 PM 92.3 °F 93.4 °F 63.0 °F 38% 29.97 in 10.0 mi SSW 11.5 mph 17.3 mph N/A   Clear
7:55 PM 91.4 °F 92.1 °F 62.6 °F 38% 29.97 in 10.0 mi SSW 11.5 mph - N/A   Clear
8:15 PM 90.0 °F 91.0 °F 63.5 °F 41% 29.97 in 10.0 mi South 6.9 mph - N/A   Clear
8:35 PM 88.3 °F 89.5 °F 63.9 °F 44% 29.97 in 10.0 mi South 9.2 mph - N/A   Clear
8:55 PM 86.9 °F 88.1 °F 63.7 °F 46% 29.97 in 10.0 mi South 9.2 mph - N/A   Clear
9:15 PM 85.3 °F 86.6 °F 64.0 °F 49% 29.98 in 10.0 mi South 8.1 mph - N/A   Clear
9:35 PM 84.6 °F 85.9 °F 64.0 °F 50% 29.98 in 10.0 mi South 9.2 mph - N/A   Clear
9:55 PM 84.2 °F 85.4 °F 63.9 °F 50% 29.99 in 10.0 mi South 9.2 mph - N/A   Clear
10:15 PM 83.3 °F 84.6 °F 63.9 °F 52% 29.99 in 7.0 mi South 9.2 mph - N/A   Clear
10:35 PM 83.5 °F 84.7 °F 63.5 °F 51% 29.99 in 10.0 mi South 10.4 mph - N/A   Clear
10:55 PM 83.7 °F 84.7 °F 63.0 °F 50% 30.00 in 10.0 mi SSW 10.4 mph - N/A   Clear
11:15 PM 82.9 °F 84.0 °F 63.3 °F 51% 30.00 in 10.0 mi South 9.2 mph - N/A   Clear
11:35 PM 82.0 °F 83.3 °F 63.3 °F 53% 30.00 in 10.0 mi SSW 8.1 mph - N/A   Clear
11:55 PM 81.9 °F 83.1 °F 63.1 °F 53% 30.00 in 10.0 mi SSW 9.2 mph - N/A   Clear